Regional Weather Roundup
Issued by NWS

Home | Current Version | Previous Version | Graphics & Text | Print | Product List | Glossary Off
Versions: 1 2 3 4 5 6 7 8 9 10 11 12 13 14 15 16 17 18 19 20 21 22 23 24 25 26 27 28 29 30 31 32 33 34 35 36 37 38 39 40 41 42 43 44 45 46 47 48 49 50

000
ASUS43 KMKX 221620
RWRWI

WISCONSIN REGIONAL WEATHER ROUNDUP
NATIONAL WEATHER SERVICE MILWAUKEE/SULLIVAN WI
1000 AM CST THU FEB 22 2018

NOTE: "FAIR" INDICATES FEW OR NO CLOUDS BELOW 12,000 FEET WITH NO
SIGNIFICANT WEATHER AND/OR OBSTRUCTIONS TO VISIBILITY.

WIZ001-002-006>008-014>016-023>028-221700-
NORTHWEST WISCONSIN

CITY           SKY/WX    TMP DP  RH WIND       PRES   REMARKS
SUPERIOR ARPT  FAIR      10   2  69 CALM      30.64S
ASHLAND        FAIR       7   3  84 CALM      30.64S
HAYWARD        FAIR      14   4  64 CALM      30.59S
SIREN          FAIR       9   2  74 CALM      30.59F
CUMBERLAND     CLOUDY    12   3  67 SE7       30.57S WCI   2
RICE LAKE      FAIR      15   6  68 SE6       30.60F WCI   6
CHETEK         FAIR      15   5  63 E7        30.59F WCI   5
LADYSMITH      FAIR      19   7  60 E5        30.60F WCI  12
EAU CLAIRE     PTSUNNY   18   7  62 E6        30.59F WCI  10
MENOMONIE      FAIR      19   7  60 E7        30.59F WCI   9
NEW RICHMOND   FAIR      18   5  58 SE7       30.59S WCI   8
OSCEOLA        CLOUDY    16   6  64 E8        30.61F WCI   5
$$

WIZ003>005-009-010-017-018-221700-
NORTH CENTRAL WISCONSIN

CITY           SKY/WX    TMP DP  RH WIND       PRES   REMARKS
MANITOWISH WTR FAIR      13   6  73 CALM      30.58S
ARBOR VITAE    FAIR      19   9  65 SE3       30.58S
WOODRUFF       FAIR      19   9  65 SE3       30.58S
RHINELANDER    FAIR      17   7  64 E6        30.58F WCI   9
EAGLE RIVER    FAIR      18   6  59 CALM      30.58S
LAND O LAKES   FAIR      22   8  55 S5        30.60S WCI  15
PHILLIPS       FAIR      18   6  61 SE3       30.58S
TOMAHAWK       FAIR      17   7  65 CALM      30.60S
MEDFORD        FAIR      19   8  61 E7        30.57S WCI   9
MERRILL        FAIR      22  11  62 E5        30.60F WCI  16
$$

WIZ029-030-035-036-043>047-221700-
CENTRAL WISCONSIN

CITY           SKY/WX    TMP DP  RH WIND       PRES   REMARKS
WAUSAU         CLOUDY    19  10  68 E6        30.59F WCI  11
MOSINEE        CLOUDY    19  12  73 E7        30.60F WCI  10
MARSHFIELD     PTSUNNY   18  11  74 E8        30.57F WCI   8
STEVENS POINT  CLOUDY    19  11  68 E6        30.61S WCI  11
WAUPACA        CLOUDY    26  14  61 N3        30.64F
WAUTOMA        CLOUDY    23  15  71 NE7       30.63F WCI  15
WISC RAPIDS    CLOUDY    23  12  62 E8        30.61F WCI  14
CAMP DOUGLAS   PTSUNNY   24  14  66 E8        30.59F WCI  14
$$

WIZ011>013-019>022-031-037>040-048>050-221700-
NORTHEAST WISCONSIN

CITY           SKY/WX    TMP DP  RH WIND       PRES   REMARKS
ANTIGO         PTSUNNY   20  10  64 SE9       30.60S WCI   9
SHAWANO        PTSUNNY   25  13  60 E5        30.65S WCI  20
OCONTO         PTSUNNY   24  13  62 NE6       30.66F WCI  17
STURGEON BAY   FAIR      28  20  71 NE6       30.66F WCI  22
GREEN BAY      CLOUDY    23  14  68 NE9       30.66S WCI  13
MANITOWOC      CLOUDY    28  22  78 N5        30.65R WCI  23
APPLETON       PTSUNNY   23  12  63 NE6       30.62S WCI  16
CLINTONVILLE   CLOUDY    24  12  59 E3        30.64S
OSHKOSH        CLOUDY    24  17  74 NE7       30.64R WCI  16
$$

WIZ032>034-041-042-053>061-221700-
SOUTHWEST WISCONSIN

CITY           SKY/WX    TMP DP  RH WIND       PRES   REMARKS
LA CROSSE      CLOUDY    25  16  68 E7        30.59F WCI  17
SPARTA         CLOUDY    23  16  75 E8        30.61F WCI  14
VIROQUA        PTSUNNY   24  19  80 E9        30.53F WCI  15
BOSCOBEL       CLOUDY    29  16  58 NE9       30.57F WCI  20
PRAIRIE DU CHI PTSUNNY   28  15  57 E9        30.56F WCI  19
PLATTEVILLE    FAIR      28  21  76 E13       30.55S WCI  17
$$

WIZ056-057-062-063-064-067-068-221700-
SOUTH CENTRAL WISCONSIN

CITY           SKY/WX    TMP DP  RH WIND       PRES   REMARKS
REEDSBURG      PTSUNNY   25  15  68 E10       30.58F WCI  14
BARABOO/DELLS  CLOUDY    25  16  68 E9        30.59F WCI  15
LONE ROCK      CLOUDY    27  19  72 E9        30.59F WCI  18
MINERAL POINT  FAIR      30  23  74 E10       30.53F WCI  21
MADISON        CLOUDY    27  20  75 E10       30.59S WCI  17
MIDDLETON      CLOUDY    29  22  74 E8        30.59F WCI  21
WATERTOWN      CLOUDY    29  23  77 E9        30.58F WCI  21
MONROE         FAIR      28  21  74 NE12      30.54F WCI  18
JANESVILLE     CLOUDY    30  25  80 NE9       30.58R WCI  22
$$

WIZ051-052-058>065-066-070>072-221700-
SOUTHEAST WISCONSIN

CITY           SKY/WX    TMP DP  RH WIND       PRES   REMARKS
MILWAUKEE      PTSUNNY   33  27  78 NE13      30.60F WCI  24
WAUKESHA       CLOUDY    28  21  74 NE8       30.59F WCI  20
MILWAUKEE/TIMM CLOUDY    32  19  59 NE8       30.60F WCI  25
RACINE         PTSUNNY   34  28  79 NE13      30.60S WCI  25
BURLINGTON     FAIR      32  26  76 E12       30.57F WCI  23
KENOSHA        PTSUNNY   35  27  72 E17       30.57F WCI  25
FOND DU LAC    PTSUNNY   27  18  69 NE8       30.63R WCI  19
SHEBOYGAN      CLOUDY    31  23  72 NE12      30.64R WCI  22
WEST BEND      CLOUDY    30  25  80 NE9G17    30.60S WCI  22
JUNEAU         CLOUDY    28  21  75 NE7       30.61S WCI  21
$$

LSZ147-162-221700-
LAKE SUPERIOR

STATION/POSITION TIME  TEMP    WIND        PRES    WAVE
                       AIR SEA DIR/SP/G            HT/PER
                 (UTC) (F)     (DEG/KT/KT) (MB)    (FT/S)
DEVILS ISLAND    1600   15     120/  4/  5 1039.3R
SAXON HARBOR     1530   12      60/  2/  2 1036.9F
$$

LMZ867-665-643>646-221700-
LAKE MICHIGAN

STATION/POSITION TIME  TEMP    WIND        PRES    WAVE
                       AIR SEA DIR/SP/G            HT/PER
                 (UTC) (F)     (DEG/KT/KT) (MB)    (FT/S)
NORTHPORT PIER   1606   28                 1038.6
KEWAUNEE LAKESHO 1554   29      70/  7/ 11 1036.5F
SHEBOYGAN LAKESH 1600   30      50/ 11/ 12 1038.4R
PORT WASHINGTON  1530   32      60/ 12/ 15 1037.3F
MILWAUKEE LAKESH 1600   31      50/ 13/ 14   N/A
KENOSHA   LAKESH 1600   33      60/ 10/ 12 1035.2
$$

TC  - TEMPERATURE IN CELSIUS
VSB - VISIBILITY IN STATUTE MILES
WCI - WIND CHILL INDEX
HX  - HEAT INDEX





USA.gov is the U.S. government's official web portal to all federal, state and local government web resources and services.